| time (UTC) | temp C | wind direction | speed KPH | gust KPH | rain 1hr cm | rain 24hr cm | rain mn cm | humidity % | barometer mb |
| 20260902232514 | 17 | 158 | 0.0 | 0.0 | 0.00 | 0.13 | 0.13 | 99 | 1016.7 |
| 20260902232009 | 17 | 163 | 1.6 | 1.6 | 0.00 | 0.13 | 0.13 | 99 | 1016.7 |
| 20260902231503 | 17 | 140 | 1.6 | 1.6 | 0.00 | 0.13 | 0.13 | 99 | 1016.9 |
| 20260902230958 | 17 | 158 | 0.0 | 0.0 | 0.00 | 0.13 | 0.13 | 99 | 1017.1 |
| 20260902230451 | 17 | 174 | 0.0 | 1.6 | 0.00 | 0.13 | 0.13 | 99 | 1017.1 |
| 20260902225945 | 17 | 174 | 3.2 | 3.2 | 0.00 | 0.13 | 0.13 | 99 | 1016.8 |
| 20260902225440 | 17 | 184 | 1.6 | 3.2 | 0.00 | 0.13 | 0.13 | 99 | 1017.0 |
| 20260902224940 | 17 | 235 | 3.2 | 4.8 | 0.00 | 0.13 | 0.13 | 99 | 1017.3 |
| 20260902224439 | 17 | 197 | 0.0 | 0.0 | 0.00 | 0.13 | 0.13 | 99 | 1017.2 |
| 20260902223936 | 17 | 158 | 1.6 | 1.6 | 0.00 | 0.13 | 0.13 | 99 | 1017.2 |
| 20260902223431 | 17 | 109 | 1.6 | 1.6 | 0.00 | 0.13 | 0.13 | 99 | 1017.3 |
| 20260902222930 | 17 | 141 | 0.0 | 1.6 | 0.00 | 0.13 | 0.13 | 99 | 1017.1 |
| 20260902222429 | 17 | 107 | 0.0 | 0.0 | 0.00 | 0.13 | 0.13 | 99 | 1017.1 |
| 20260902221929 | 17 | 162 | 1.6 | 1.6 | 0.00 | 0.13 | 0.13 | 99 | 1017.3 |
| 20260902221427 | 17 | 137 | 0.0 | 0.0 | 0.00 | 0.13 | 0.13 | 99 | 1017.1 |
| 20260902220924 | 17 | 241 | 0.0 | 0.0 | 0.00 | 0.13 | 0.13 | 99 | 1017.2 |
| 20260902220423 | 17 | 139 | 1.6 | 1.6 | 0.00 | 0.13 | 0.13 | 99 | 1017.0 |
| 20260902215919 | 17 | 60 | 0.0 | 0.0 | 0.00 | 0.13 | 0.13 | 99 | 1017.1 |
| 20260902215414 | 17 | 62 | 0.0 | 0.0 | 0.00 | 0.13 | 0.13 | 99 | 1017.3 |
| 20260902214910 | 17 | 62 | 0.0 | 1.6 | 0.00 | 0.13 | 0.13 | 99 | 1017.2 |
| 20260902214409 | 17 | 16 | 0.0 | 1.6 | 0.00 | 0.13 | 0.13 | 99 | 1017.3 |
| 20260902213903 | 17 | 98 | 0.0 | 0.0 | 0.00 | 0.13 | 0.13 | 99 | 1017.5 |
| 20260902213400 | 17 | 95 | 0.0 | 0.0 | 0.00 | 0.13 | 0.13 | 99 | 1017.1 |
| 20260902212858 | 17 | 40 | 0.0 | 0.0 | 0.00 | 0.13 | 0.13 | 99 | 1017.2 |
| 20260902212354 | 17 | 49 | 0.0 | 1.6 | 0.00 | 0.13 | 0.13 | 99 | 1017.1 |
| 20260902211851 | 17 | 92 | 0.0 | 0.0 | 0.00 | 0.13 | 0.13 | 99 | 1017.2 |
| 20260902211346 | 17 | 192 | 1.6 | 1.6 | 0.00 | 0.13 | 0.13 | 99 | 1017.0 |
| 20260902210841 | 17 | 232 | 0.0 | 1.6 | 0.00 | 0.13 | 0.13 | 99 | 1017.2 |
| 20260902210341 | 17 | 92 | 0.0 | 1.6 | 0.00 | 0.13 | 0.13 | 99 | 1017.3 |
| 20260902205839 | 17 | 100 | 0.0 | 1.6 | 0.00 | 0.13 | 0.13 | 99 | 1017.3 |
| 20260902205334 | 17 | 105 | 0.0 | 1.6 | 0.00 | 0.13 | 0.13 | 99 | 1017.3 |
| 20260902204830 | 17 | 105 | 1.6 | 1.6 | 0.00 | 0.13 | 0.13 | 99 | 1017.5 |
| 20260902204324 | 17 | 105 | 0.0 | 0.0 | 0.00 | 0.13 | 0.13 | 99 | 1017.5 |
| 20260902203820 | 17 | 95 | 0.0 | 1.6 | 0.00 | 0.13 | 0.13 | 99 | 1017.4 |
| 20260902203315 | 17 | 98 | 0.0 | 0.0 | 0.00 | 0.13 | 0.13 | 99 | 1017.7 |
| 20260902202814 | 17 | 102 | 0.0 | 0.0 | 0.00 | 0.13 | 0.13 | 99 | 1017.5 |
| 20260902202310 | 17 | 192 | 0.0 | 1.6 | 0.00 | 0.13 | 0.13 | 99 | 1017.5 |
| 20260902201807 | 17 | 199 | 0.0 | 0.0 | 0.00 | 0.13 | 0.13 | 99 | 1017.5 |
| 20260902201301 | 17 | 100 | 1.6 | 1.6 | 0.00 | 0.13 | 0.13 | 99 | 1017.5 |
| 20260902200756 | 17 | 186 | 0.0 | 0.0 | 0.00 | 0.13 | 0.13 | 99 | 1017.4 |
| 20260902200251 | 17 | 211 | 0.0 | 0.0 | 0.00 | 0.13 | 0.13 | 99 | 1017.5 |
| 20260902195746 | 17 | 76 | 0.0 | 0.0 | 0.00 | 0.13 | 0.13 | 99 | 1017.7 |
| 20260902195246 | 17 | 73 | 1.6 | 3.2 | 0.00 | 0.13 | 0.13 | 99 | 1017.5 |
| 20260902194740 | 17 | 79 | 0.0 | 0.0 | 0.00 | 0.13 | 0.13 | 99 | 1017.4 |
| 20260902194235 | 17 | 76 | 1.6 | 3.2 | 0.00 | 0.13 | 0.13 | 99 | 1017.3 |
| 20260902193731 | 17 | 90 | 1.6 | 1.6 | 0.00 | 0.13 | 0.13 | 99 | 1017.3 |
| 20260902193226 | 17 | 81 | 0.0 | 1.6 | 0.00 | 0.13 | 0.13 | 99 | 1017.4 |
| 20260902192724 | 17 | 68 | 0.0 | 1.6 | 0.00 | 0.13 | 0.13 | 99 | 1017.2 |
| 20260902192219 | 17 | 57 | 1.6 | 3.2 | 0.00 | 0.13 | 0.13 | 99 | 1017.4 |
| 20260902191718 | 17 | 88 | 0.0 | 1.6 | 0.00 | 0.13 | 0.13 | 99 | 1017.5 |
| 20260902191213 | 17 | 153 | 0.0 | 1.6 | 0.00 | 0.13 | 0.13 | 99 | 1017.6 |
| 20260902190708 | 17 | 121 | 1.6 | 3.2 | 0.00 | 0.13 | 0.13 | 99 | 1017.7 |
| 20260902190203 | 17 | 111 | 0.0 | 0.0 | 0.00 | 0.13 | 0.13 | 99 | 1017.8 |
| 20260902185659 | 17 | 107 | 0.0 | 1.6 | 0.00 | 0.13 | 0.13 | 99 | 1018.0 |
| 20260902185154 | 17 | 73 | 0.0 | 1.6 | 0.00 | 0.13 | 0.13 | 99 | 1018.1 |
| 20260902184649 | 17 | 90 | 1.6 | 1.6 | 0.00 | 0.13 | 0.13 | 99 | 1018.2 |
| 20260902184145 | 17 | 162 | 0.0 | 0.0 | 0.00 | 0.13 | 0.13 | 99 | 1018.2 |
| 20260902183641 | 17 | 168 | 1.6 | 1.6 | 0.00 | 0.13 | 0.13 | 99 | 1018.2 |
| 20260902183137 | 17 | 163 | 0.0 | 1.6 | 0.00 | 0.13 | 0.13 | 99 | 1018.5 |
| 20260902182633 | 17 | 140 | 0.0 | 1.6 | 0.00 | 0.13 | 0.13 | 99 | 1018.4 |
| 20260902182130 | 17 | 124 | 0.0 | 0.0 | 0.00 | 0.13 | 0.13 | 99 | 1018.4 |
| 20260902181625 | 17 | 124 | 1.6 | 1.6 | 0.00 | 0.13 | 0.13 | 99 | 1018.9 |
| 20260902181124 | 17 | 124 | 0.0 | 0.0 | 0.00 | 0.13 | 0.13 | 99 | 1018.7 |
| 20260902180619 | 17 | 127 | 0.0 | 0.0 | 0.00 | 0.13 | 0.13 | 99 | 1018.9 |
| 20260902180116 | 17 | 132 | 0.0 | 1.6 | 0.00 | 0.13 | 0.13 | 99 | 1018.7 |
| 20260902175615 | 17 | 83 | 0.0 | 1.6 | 0.00 | 0.13 | 0.13 | 99 | 1018.9 |
| 20260902175110 | 17 | 74 | 0.0 | 1.6 | 0.00 | 0.13 | 0.13 | 99 | 1019.0 |
| 20260902174606 | 17 | 88 | 0.0 | 0.0 | 0.18 | 0.13 | 0.13 | 99 | 1018.6 |
| 20260902174102 | 17 | 90 | 0.0 | 0.0 | 0.18 | 0.13 | 0.13 | 99 | 1018.7 |
| 20260902173556 | 17 | 117 | 1.6 | 1.6 | 0.00 | 0.10 | 0.10 | 99 | 1018.5 |
| 20260902173052 | 17 | 122 | 0.0 | 1.6 | 0.00 | 0.10 | 0.10 | 99 | 1018.6 |
| 20260902172550 | 17 | 122 | 0.0 | 1.6 | 0.13 | 0.10 | 0.10 | 99 | 1018.5 |
| 20260902172045 | 17 | 122 | 0.0 | 0.0 | 0.13 | 0.10 | 0.10 | 99 | 1018.9 |
| 20260902171542 | 17 | 122 | 0.0 | 0.0 | 0.00 | 0.08 | 0.08 | 99 | 1019.2 |
| 20260902171037 | 17 | 121 | 1.6 | 1.6 | 0.00 | 0.08 | 0.08 | 99 | 1018.7 |
| 20260902170531 | 17 | 128 | 0.0 | 0.0 | 0.18 | 0.08 | 0.08 | 99 | 1018.7 |
| 20260902170028 | 17 | 135 | 0.0 | 0.0 | 0.18 | 0.08 | 0.08 | 99 | 1018.5 |
| 20260902165522 | 17 | 135 | 0.0 | 1.6 | 0.00 | 0.05 | 0.05 | 99 | 1018.9 |
| 20260902165021 | 17 | 136 | 1.6 | 1.6 | 0.00 | 0.05 | 0.05 | 99 | 1018.9 |
| 20260902164517 | 17 | 154 | 1.6 | 1.6 | 0.00 | 0.05 | 0.05 | 99 | 1018.7 |
| 20260902164015 | 17 | 154 | 0.0 | 0.0 | 0.00 | 0.05 | 0.05 | 99 | 1018.5 |
| 20260902163511 | 17 | 155 | 0.0 | 0.0 | 0.00 | 0.05 | 0.05 | 99 | 1018.7 |
| 20260902163010 | 17 | 154 | 0.0 | 0.0 | 0.00 | 0.05 | 0.05 | 99 | 1018.6 |
| 20260902162504 | 17 | 154 | 0.0 | 1.6 | 0.00 | 0.05 | 0.05 | 99 | 1018.6 |
| 20260902161959 | 17 | 188 | 0.0 | 0.0 | 0.00 | 0.05 | 0.05 | 99 | 1018.6 |
| 20260902161454 | 17 | 117 | 0.0 | 0.0 | 0.00 | 0.05 | 0.05 | 99 | 1018.6 |
| 20260902160950 | 17 | 147 | 3.2 | 4.8 | 0.00 | 0.05 | 0.05 | 99 | 1018.7 |
| 20260902160445 | 17 | 184 | 0.0 | 1.6 | 0.00 | 0.05 | 0.05 | 99 | 1018.7 |
| 20260902155943 | 17 | 165 | 0.0 | 1.6 | 0.00 | 0.05 | 0.05 | 99 | 1018.7 |
| 20260902155439 | 17 | 193 | 0.0 | 0.0 | 0.00 | 0.05 | 0.05 | 99 | 1018.7 |
| 20260902154932 | 17 | 187 | 1.6 | 1.6 | 0.00 | 0.05 | 0.05 | 99 | 1018.5 |
| 20260902154428 | 17 | 70 | 0.0 | 0.0 | 0.00 | 0.05 | 0.05 | 99 | 1018.6 |
| 20260902153927 | 17 | 89 | 0.0 | 1.6 | 0.00 | 0.05 | 0.05 | 99 | 1018.3 |
| 20260902153426 | 17 | 87 | 1.6 | 1.6 | 0.00 | 0.05 | 0.05 | 99 | 1018.2 |
| 20260902152922 | 17 | 102 | 0.0 | 1.6 | 0.00 | 0.05 | 0.05 | 99 | 1018.4 |
| 20260902152418 | 17 | 102 | 0.0 | 0.0 | 0.00 | 0.05 | 0.05 | 99 | 1018.9 |
| 20260902151913 | 17 | 103 | 0.0 | 0.0 | 0.00 | 0.05 | 0.05 | 99 | 1018.5 |
| 20260902151409 | 16 | 112 | 1.6 | 1.6 | 0.00 | 0.05 | 0.05 | 99 | 1018.9 |
| 20260902150903 | 17 | 321 | 0.0 | 0.0 | 0.00 | 0.05 | 0.05 | 99 | 1019.0 |
| 20260902150359 | 16 | 162 | 1.6 | 3.2 | 0.00 | 0.05 | 0.05 | 99 | 1018.9 |
| 20260902145858 | 16 | 154 | 0.0 | 1.6 | 0.00 | 0.05 | 0.05 | 99 | 1018.6 |
| 20260902145353 | 17 | 159 | 1.6 | 1.6 | 0.00 | 0.05 | 0.05 | 99 | 1018.9 |
| 20260902144843 | 17 | 169 | 1.6 | 1.6 | 0.00 | 0.05 | 0.05 | 99 | 1018.5 |
| 20260902144339 | 16 | 80 | 0.0 | 1.6 | 0.00 | 0.05 | 0.05 | 99 | 1018.7 |
| 20260902143834 | 16 | 139 | 1.6 | 1.6 | 0.00 | 0.05 | 0.05 | 99 | 1018.9 |
| 20260902143334 | 16 | 126 | 0.0 | 0.0 | 0.00 | 0.05 | 0.05 | 99 | 1019.3 |
| 20260902142830 | 16 | 136 | 0.0 | 0.0 | 0.00 | 0.05 | 0.05 | 99 | 1019.2 |
| 20260902142326 | 16 | 137 | 0.0 | 0.0 | 0.00 | 0.05 | 0.05 | 99 | 1019.3 |
| 20260902141820 | 16 | 137 | 0.0 | 0.0 | 0.00 | 0.05 | 0.05 | 99 | 1019.4 |
| 20260902141316 | 16 | 131 | 0.0 | 0.0 | 0.00 | 0.05 | 0.05 | 99 | 1019.0 |
| 20260902140816 | 16 | 132 | 0.0 | 0.0 | 0.00 | 0.05 | 0.05 | 99 | 1018.9 |
| 20260902140311 | 16 | 136 | 0.0 | 0.0 | 0.00 | 0.05 | 0.05 | 99 | 1019.0 |
| 20260902135810 | 16 | 136 | 0.0 | 1.6 | 0.00 | 0.05 | 0.05 | 99 | 1018.7 |
| 20260902135307 | 16 | 143 | 1.6 | 1.6 | 0.00 | 0.05 | 0.05 | 99 | 1018.6 |
| 20260902134805 | 16 | 147 | 1.6 | 1.6 | 0.00 | 0.05 | 0.05 | 99 | 1018.7 |
| 20260902134301 | 16 | 189 | 1.6 | 3.2 | 0.00 | 0.05 | 0.05 | 99 | 1018.7 |
| 20260902133756 | 16 | 137 | 1.6 | 3.2 | 0.00 | 0.05 | 0.05 | 99 | 1018.4 |
| 20260902133255 | 16 | 52 | 1.6 | 1.6 | 0.00 | 0.05 | 0.05 | 99 | 1018.4 |
| 20260902132750 | 16 | 89 | 1.6 | 1.6 | 0.00 | 0.05 | 0.05 | 99 | 1018.4 |
| 20260902132246 | 16 | 87 | 0.0 | 1.6 | 0.00 | 0.05 | 0.05 | 99 | 1018.6 |
| 20260902131742 | 16 | 133 | 0.0 | 0.0 | 0.00 | 0.05 | 0.05 | 99 | 1018.7 |
| 20260902131238 | 16 | 132 | 0.0 | 0.0 | 0.00 | 0.05 | 0.05 | 99 | 1018.4 |
| 20260902130737 | 16 | 164 | 0.0 | 1.6 | 0.00 | 0.05 | 0.05 | 99 | 1018.4 |
| 20260902130233 | 16 | 164 | 0.0 | 1.6 | 0.00 | 0.05 | 0.05 | 99 | 1018.5 |
| 20260902125728 | 16 | 166 | 0.0 | 0.0 | 0.00 | 0.05 | 0.05 | 99 | 1018.5 |
| 20260902125225 | 16 | 86 | 0.0 | 0.0 | 0.00 | 0.05 | 0.05 | 99 | 1018.3 |
| 20260902124721 | 16 | 107 | 0.0 | 1.6 | 0.13 | 0.05 | 0.05 | 99 | 1018.1 |
| 20260902124215 | 16 | 109 | 0.0 | 1.6 | 0.13 | 0.05 | 0.05 | 99 | 1018.2 |
| 20260902123711 | 16 | 100 | 1.6 | 1.6 | 0.00 | 0.03 | 0.03 | 99 | 1018.2 |
| 20260902123207 | 16 | 132 | 0.0 | 0.0 | 0.00 | 0.03 | 0.03 | 99 | 1018.2 |
| 20260902122706 | 16 | 89 | 0.0 | 0.0 | 0.00 | 0.03 | 0.03 | 99 | 1018.2 |
| 20260902122202 | 16 | 95 | 1.6 | 1.6 | 0.00 | 0.03 | 0.03 | 99 | 1018.2 |
| 20260902121656 | 16 | 83 | 0.0 | 0.0 | 0.00 | 0.03 | 0.03 | 99 | 1018.2 |
| 20260902121151 | 16 | 105 | 1.6 | 1.6 | 0.00 | 0.03 | 0.03 | 99 | 1018.1 |
| 20260902120647 | 16 | 116 | 1.6 | 3.2 | 0.00 | 0.03 | 0.03 | 99 | 1017.9 |
| 20260902120143 | 16 | 199 | 3.2 | 4.8 | 0.00 | 0.03 | 0.03 | 99 | 1017.8 |
| 20260902115637 | 16 | 89 | 1.6 | 1.6 | 0.00 | 0.03 | 0.03 | 99 | 1017.8 |
| 20260902115133 | 16 | 171 | 0.0 | 0.0 | 0.00 | 0.03 | 0.03 | 99 | 1017.8 |
| 20260902114630 | 16 | 167 | 1.6 | 1.6 | 0.00 | 0.03 | 0.03 | 99 | 1017.6 |
| 20260902114130 | 16 | 103 | 1.6 | 3.2 | 0.00 | 0.03 | 0.03 | 99 | 1017.8 |
| 20260902113625 | 16 | 40 | 1.6 | 1.6 | 0.00 | 0.03 | 0.03 | 99 | 1017.8 |
| 20260902113120 | 16 | 64 | 0.0 | 0.0 | 0.00 | 0.03 | 0.03 | 99 | 1017.9 |
| 20260902112615 | 16 | 64 | 0.0 | 0.0 | 0.00 | 0.03 | 0.03 | 99 | 1018.0 |
| 20260902112112 | 16 | 64 | 0.0 | 0.0 | 0.00 | 0.03 | 0.03 | 99 | 1018.0 |
| 20260902111607 | 16 | 73 | 0.0 | 0.0 | 0.00 | 0.03 | 0.03 | 99 | 1017.8 |
| 20260902111102 | 16 | 73 | 1.6 | 1.6 | 0.00 | 0.03 | 0.03 | 99 | 1017.9 |
| 20260902110559 | 16 | 100 | 0.0 | 0.0 | 0.00 | 0.03 | 0.03 | 99 | 1018.0 |
| 20260902110054 | 16 | 100 | 0.0 | 1.6 | 0.00 | 0.03 | 0.03 | 99 | 1017.7 |
| 20260902105549 | 16 | 174 | 1.6 | 1.6 | 0.00 | 0.03 | 0.03 | 99 | 1017.6 |
| 20260902105049 | 16 | 189 | 1.6 | 1.6 | 0.00 | 0.03 | 0.03 | 99 | 1017.6 |
| 20260902104544 | 16 | 110 | 0.0 | 1.6 | 0.00 | 0.03 | 0.03 | 99 | 1017.4 |
| 20260902104039 | 16 | 98 | 0.0 | 0.0 | 0.00 | 0.03 | 0.03 | 99 | 1017.7 |
| 20260902103534 | 16 | 82 | 1.6 | 1.6 | 0.00 | 0.03 | 0.03 | 99 | 1017.6 |
| 20260902103030 | 16 | 93 | 1.6 | 1.6 | 0.00 | 0.03 | 0.03 | 99 | 1017.8 |
| 20260902102526 | 16 | 90 | 0.0 | 0.0 | 0.00 | 0.03 | 0.03 | 99 | 1017.7 |
| 20260902102023 | 16 | 90 | 0.0 | 0.0 | 0.00 | 0.03 | 0.03 | 99 | 1017.9 |
| 20260902101518 | 16 | 97 | 1.6 | 3.2 | 0.00 | 0.03 | 0.03 | 99 | 1017.8 |
| 20260902101016 | 16 | 113 | 0.0 | 0.0 | 0.00 | 0.03 | 0.03 | 99 | 1017.6 |
| 20260902100511 | 16 | 64 | 0.0 | 0.0 | 0.00 | 0.03 | 0.03 | 99 | 1017.6 |
| 20260902100006 | 16 | 105 | 1.6 | 1.6 | 0.00 | 0.03 | 0.03 | 99 | 1017.5 |
| 20260902095500 | 16 | 165 | 1.6 | 1.6 | 0.00 | 0.03 | 0.03 | 99 | 1017.5 |
| 20260902094959 | 16 | 87 | 0.0 | 1.6 | 0.00 | 0.03 | 0.03 | 99 | 1017.5 |
| 20260902094455 | 16 | 92 | 0.0 | 1.6 | 0.00 | 0.03 | 0.03 | 99 | 1017.6 |
| 20260902093950 | 16 | 92 | 1.6 | 1.6 | 0.00 | 0.03 | 0.03 | 99 | 1017.8 |
| 20260902093445 | 16 | 92 | 0.0 | 0.0 | 0.00 | 0.03 | 0.03 | 99 | 1017.8 |
| 20260902092944 | 16 | 115 | 0.0 | 1.6 | 0.00 | 0.03 | 0.03 | 99 | 1017.6 |
| 20260902092440 | 16 | 185 | 1.6 | 3.2 | 0.00 | 0.03 | 0.03 | 99 | 1017.7 |
| 20260902091939 | 16 | 126 | 0.0 | 0.0 | 0.00 | 0.03 | 0.03 | 99 | 1017.5 |
| 20260902091435 | 16 | 125 | 0.0 | 0.0 | 0.00 | 0.03 | 0.03 | 99 | 1017.5 |
| 20260902090931 | 16 | 146 | 1.6 | 1.6 | 0.00 | 0.03 | 0.03 | 99 | 1017.2 |
| 20260902090432 | 17 | 60 | 1.6 | 1.6 | 0.00 | 0.03 | 0.03 | 99 | 1017.3 |
| 20260902085930 | 17 | 95 | 0.0 | 1.6 | 0.00 | 0.03 | 0.03 | 99 | 1017.2 |
| 20260902085425 | 17 | 96 | 0.0 | 0.0 | 0.00 | 0.03 | 0.03 | 99 | 1017.1 |
| 20260902084921 | 17 | 96 | 0.0 | 1.6 | 0.00 | 0.03 | 0.03 | 99 | 1017.0 |
| 20260902084417 | 17 | 96 | 1.6 | 1.6 | 0.00 | 0.03 | 0.03 | 99 | 1016.9 |
| 20260902083912 | 17 | 90 | 1.6 | 1.6 | 0.00 | 0.03 | 0.03 | 99 | 1017.3 |
| 20260902083407 | 17 | 100 | 0.0 | 1.6 | 0.00 | 0.03 | 0.03 | 99 | 1017.3 |
| 20260902082902 | 17 | 94 | 0.0 | 0.0 | 0.00 | 0.03 | 0.03 | 99 | 1017.4 |
| 20260902082358 | 17 | 55 | 0.0 | 1.6 | 0.00 | 0.03 | 0.03 | 99 | 1017.3 |
| 20260902081854 | 17 | 72 | 0.0 | 0.0 | 0.00 | 0.03 | 0.03 | 99 | 1017.1 |
| 20260902081350 | 17 | 72 | 0.0 | 0.0 | 0.00 | 0.03 | 0.03 | 99 | 1017.1 |
| 20260902080845 | 17 | 72 | 0.0 | 0.0 | 0.00 | 0.03 | 0.03 | 99 | 1016.8 |
| 20260902080341 | 17 | 72 | 0.0 | 0.0 | 0.00 | 0.03 | 0.03 | 99 | 1016.7 |
| 20260902075840 | 17 | 73 | 0.0 | 0.0 | 0.00 | 0.03 | 0.03 | 99 | 1017.0 |
| 20260902075337 | 17 | 73 | 0.0 | 0.0 | 0.00 | 0.03 | 0.03 | 99 | 1016.9 |
| 20260902074832 | 17 | 73 | 0.0 | 0.0 | 0.00 | 0.03 | 0.03 | 99 | 1016.9 |
| 20260902074328 | 17 | 72 | 0.0 | 1.6 | 0.00 | 0.03 | 0.03 | 99 | 1017.1 |
| 20260902073828 | 17 | 58 | 0.0 | 1.6 | 0.00 | 0.03 | 0.03 | 99 | 1016.8 |
| 20260902073324 | 17 | 79 | 0.0 | 0.0 | 0.18 | 0.03 | 0.03 | 99 | 1016.8 |
| 20260902072820 | 17 | 79 | 0.0 | 1.6 | 0.18 | 0.03 | 0.03 | 99 | 1016.8 |
| 20260902072315 | 17 | 80 | 0.0 | 0.0 | 0.00 | 0.00 | 0.00 | 99 | 1016.8 |
| 20260902071812 | 17 | 80 | 0.0 | 0.0 | 0.00 | 0.00 | 0.00 | 99 | 1016.7 |
| 20260902071306 | 17 | 80 | 0.0 | 1.6 | 0.00 | 0.00 | 0.00 | 99 | 1016.9 |
| 20260902070803 | 17 | 80 | 0.0 | 1.6 | 0.00 | 0.00 | 0.00 | 99 | 1016.7 |
| 20260902070302 | 17 | 80 | 0.0 | 0.0 | 0.00 | 0.00 | 0.00 | 99 | 1016.9 |
| 20260902065800 | 17 | 80 | 1.6 | 1.6 | 0.00 | 0.00 | 0.00 | 99 | 1016.7 |
| 20260902065251 | 17 | 80 | 1.6 | 1.6 | 0.00 | 0.00 | 0.00 | 99 | 1016.6 |
| 20260902064747 | 17 | 78 | 0.0 | 1.6 | 0.00 | 0.00 | 0.00 | 99 | 1016.8 |
| 20260902064242 | 17 | 80 | 0.0 | 1.6 | 0.00 | 0.00 | 0.00 | 99 | 1016.6 |
| 20260902063737 | 17 | 70 | 1.6 | 1.6 | 0.00 | 0.00 | 0.00 | 99 | 1016.7 |
| 20260902063237 | 17 | 86 | 1.6 | 1.6 | 0.00 | 0.00 | 0.00 | 99 | 1016.6 |
| 20260902062732 | 17 | 86 | 3.2 | 3.2 | 0.00 | 0.00 | 0.00 | 99 | 1016.6 |
| 20260902062227 | 17 | 79 | 1.6 | 1.6 | 0.00 | 0.00 | 0.00 | 99 | 1016.8 |
| 20260902061725 | 18 | 80 | 1.6 | 1.6 | 0.00 | 0.00 | 0.00 | 99 | 1016.9 |
| 20260902061221 | 18 | 70 | 1.6 | 1.6 | 0.00 | 0.00 | 0.00 | 99 | 1016.7 |
| 20260902060718 | 18 | 131 | 0.0 | 0.0 | 0.00 | 0.00 | 0.00 | 99 | 1016.8 |
| 20260902060214 | 18 | 25 | 0.0 | 0.0 | 0.00 | 0.00 | 0.00 | 99 | 1016.8 |
| 20260902055709 | 18 | 25 | 0.0 | 0.0 | 0.00 | 0.00 | 0.00 | 99 | 1016.8 |
| 20260902055205 | 18 | 25 | 0.0 | 0.0 | 0.00 | 0.00 | 0.00 | 99 | 1016.7 |
| 20260902054700 | 18 | 25 | 0.0 | 0.0 | 0.00 | 0.00 | 0.00 | 99 | 1017.0 |
| 20260902054155 | 18 | 58 | 0.0 | 0.0 | 0.00 | 0.00 | 0.00 | 99 | 1016.9 |
| 20260902053650 | 18 | 57 | 0.0 | 1.6 | 0.00 | 0.00 | 0.00 | 99 | 1016.8 |
| 20260902053145 | 18 | 57 | 0.0 | 0.0 | 0.00 | 0.00 | 0.00 | 99 | 1016.8 |
| 20260902052644 | 18 | 54 | 0.0 | 0.0 | 0.00 | 0.00 | 0.00 | 99 | 1016.8 |
| 20260902052140 | 18 | 46 | 0.0 | 1.6 | 0.00 | 0.00 | 0.00 | 99 | 1016.8 |
| 20260902051639 | 18 | 67 | 1.6 | 1.6 | 0.00 | 0.00 | 0.00 | 99 | 1016.6 |
| 20260902051133 | 18 | 71 | 0.0 | 0.0 | 0.00 | 0.00 | 0.00 | 99 | 1016.8 |
| 20260902050628 | 18 | 67 | 0.0 | 0.0 | 0.00 | 0.00 | 0.00 | 99 | 1016.7 |
| 20260902050123 | 18 | 260 | 3.2 | 6.4 | 0.00 | 0.00 | 0.00 | 99 | 1016.6 |
| 20260902045618 | 18 | 147 | 0.0 | 1.6 | 0.00 | 0.00 | 0.00 | 99 | 1016.6 |
| 20260902045115 | 19 | 149 | 0.0 | 1.6 | 0.00 | 0.00 | 0.00 | 99 | 1016.5 |
| 20260902044614 | 19 | 131 | 1.6 | 1.6 | 0.00 | 0.00 | 0.00 | 99 | 1016.7 |
| 20260902044110 | 19 | 124 | 0.0 | 1.6 | 0.00 | 0.00 | 0.00 | 99 | 1016.7 |
| 20260902043606 | 19 | 124 | 3.2 | 3.2 | 0.00 | 0.00 | 0.00 | 99 | 1016.5 |
| 20260902043100 | 19 | 41 | 1.6 | 1.6 | 0.00 | 0.00 | 0.00 | 99 | 1016.4 |
| 20260902042559 | 19 | 41 | 0.0 | 0.0 | 0.00 | 0.00 | 0.00 | 99 | 1016.7 |
| 20260902042055 | 19 | 123 | 1.6 | 1.6 | 0.00 | 0.00 | 0.00 | 99 | 1016.5 |
| 20260902041555 | 19 | 123 | 1.6 | 3.2 | 0.00 | 0.00 | 0.00 | 99 | 1016.6 |
| 20260902041049 | 20 | 123 | 1.6 | 1.6 | 0.00 | 0.00 | 0.00 | 99 | 1016.3 |
| 20260902040544 | 20 | 132 | 0.0 | 1.6 | 0.00 | 0.00 | 0.00 | 99 | 1016.3 |
| 20260902040039 | 20 | 122 | 0.0 | 0.0 | 0.00 | 1.09 | 1.09 | 99 | 1016.1 |
| 20260902035537 | 20 | 126 | 1.6 | 1.6 | 0.00 | 1.09 | 1.09 | 99 | 1016.2 |
| 20260902035033 | 20 | 126 | 0.0 | 0.0 | 0.00 | 1.09 | 1.09 | 99 | 1016.2 |
| 20260902034532 | 20 | 134 | 0.0 | 0.0 | 0.00 | 1.09 | 1.09 | 99 | 1016.1 |
| 20260902034031 | 20 | 134 | 1.6 | 1.6 | 0.00 | 1.09 | 1.09 | 99 | 1015.6 |
| 20260902033531 | 20 | 143 | 0.0 | 1.6 | 0.00 | 1.09 | 1.09 | 99 | 1016.2 |
| 20260902033026 | 20 | 125 | 1.6 | 1.6 | 0.00 | 1.09 | 1.09 | 99 | 1015.8 |
| 20260902032524 | 20 | 152 | 0.0 | 1.6 | 0.00 | 1.09 | 1.09 | 99 | 1015.7 |
| 20260902032020 | 20 | 110 | 0.0 | 0.0 | 0.00 | 1.09 | 1.09 | 99 | 1015.5 |
| 20260902031514 | 20 | 121 | 0.0 | 1.6 | 0.00 | 1.09 | 1.09 | 99 | 1015.6 |
| 20260902031010 | 20 | 122 | 0.0 | 1.6 | 0.00 | 1.09 | 1.09 | 99 | 1015.4 |
| 20260902030505 | 20 | 133 | 0.0 | 0.0 | 0.00 | 1.09 | 1.09 | 99 | 1015.4 |
| 20260902030005 | 20 | 133 | 0.0 | 0.0 | 0.00 | 1.09 | 1.09 | 99 | 1015.3 |
| 20260902025500 | 20 | 134 | 0.0 | 0.0 | 0.00 | 1.09 | 1.09 | 99 | 1015.2 |
| 20260902024954 | 20 | 133 | 0.0 | 0.0 | 0.00 | 1.09 | 1.09 | 99 | 1015.2 |
| 20260902024450 | 20 | 137 | 0.0 | 0.0 | 0.00 | 1.09 | 1.09 | 99 | 1015.1 |
| 20260902023944 | 20 | 138 | 1.6 | 1.6 | 0.00 | 1.09 | 1.09 | 99 | 1015.0 |
| 20260902023440 | 20 | 112 | 0.0 | 1.6 | 0.00 | 1.09 | 1.09 | 99 | 1015.1 |
| 20260902022939 | 20 | 112 | 0.0 | 0.0 | 0.00 | 1.09 | 1.09 | 99 | 1015.0 |
| 20260902022434 | 20 | 112 | 0.0 | 1.6 | 0.00 | 1.09 | 1.09 | 99 | 1014.8 |
| 20260902021930 | 21 | 109 | 1.6 | 1.6 | 0.00 | 1.09 | 1.09 | 99 | 1014.6 |
| 20260902021425 | 21 | 119 | 1.6 | 1.6 | 0.00 | 1.09 | 1.09 | 99 | 1014.7 |
| 20260902020920 | 21 | 119 | 1.6 | 1.6 | 0.00 | 1.09 | 1.09 | 99 | 1014.7 |
| 20260902020417 | 21 | 119 | 1.6 | 1.6 | 0.00 | 1.09 | 1.09 | 99 | 1014.6 |
| 20260902015912 | 21 | 119 | 0.0 | 0.0 | 0.00 | 1.09 | 1.09 | 99 | 1014.6 |
| 20260902015408 | 21 | 119 | 0.0 | 0.0 | 0.00 | 1.09 | 1.09 | 99 | 1014.8 |
| 20260902014903 | 21 | 119 | 0.0 | 0.0 | 0.00 | 1.09 | 1.09 | 99 | 1014.8 |
| 20260902014359 | 21 | 119 | 1.6 | 1.6 | 0.00 | 1.09 | 1.09 | 99 | 1014.9 |
| 20260902013858 | 21 | 124 | 0.0 | 0.0 | 0.00 | 1.09 | 1.09 | 99 | 1014.8 |
| 20260902013354 | 21 | 124 | 1.6 | 1.6 | 0.00 | 1.09 | 1.09 | 99 | 1014.9 |
| 20260902012850 | 21 | 124 | 0.0 | 0.0 | 0.00 | 1.09 | 1.09 | 99 | 1014.8 |
| 20260902012345 | 21 | 124 | 0.0 | 1.6 | 0.00 | 1.09 | 1.09 | 99 | 1015.1 |
| 20260902011841 | 21 | 124 | 1.6 | 1.6 | 0.00 | 1.09 | 1.09 | 99 | 1015.1 |
| 20260902011335 | 21 | 124 | 0.0 | 1.6 | 0.00 | 1.09 | 1.09 | 99 | 1014.6 |
| 20260902010834 | 21 | 136 | 1.6 | 1.6 | 0.00 | 1.09 | 1.09 | 99 | 1014.9 |
| 20260902010329 | 21 | 153 | 0.0 | 1.6 | 0.00 | 1.09 | 1.09 | 99 | 1014.8 |
| 20260902005828 | 21 | 129 | 0.0 | 0.0 | 0.00 | 1.09 | 1.09 | 99 | 1014.4 |
| 20260902005323 | 21 | 123 | 0.0 | 1.6 | 0.00 | 1.09 | 1.09 | 99 | 1014.3 |
| 20260902004819 | 21 | 123 | 1.6 | 1.6 | 0.00 | 1.09 | 1.09 | 99 | 1014.3 |
| 20260902004314 | 21 | 121 | 1.6 | 3.2 | 0.00 | 1.09 | 1.09 | 99 | 1014.2 |
| 20260902003814 | 21 | 121 | 0.0 | 1.6 | 0.00 | 1.09 | 1.09 | 99 | 1014.3 |
| 20260902003309 | 21 | 115 | 1.6 | 3.2 | 0.00 | 1.09 | 1.09 | 99 | 1014.1 |
| 20260902002805 | 21 | 118 | 0.0 | 1.6 | 0.00 | 1.09 | 1.09 | 99 | 1013.9 |
| 20260902002259 | 21 | 118 | 0.0 | 0.0 | 0.00 | 1.09 | 1.09 | 99 | 1013.6 |
| 20260902001754 | 21 | 118 | 0.0 | 0.0 | 0.00 | 1.09 | 1.09 | 99 | 1013.7 |
| 20260902001249 | 21 | 118 | 1.6 | 1.6 | 0.00 | 1.09 | 1.09 | 99 | 1013.7 |
| 20260902000743 | 21 | 118 | 1.6 | 1.6 | 0.00 | 1.09 | 1.09 | 99 | 1013.6 |
| 20260902000238 | 21 | 119 | 0.0 | 0.0 | 0.00 | 1.09 | 1.09 | 99 | 1013.4 |
| 20260901235733 | 22 | 118 | 0.0 | 0.0 | 0.00 | 1.09 | 1.09 | 99 | 1013.3 |
| 20260901235228 | 22 | 118 | 0.0 | 1.6 | 0.00 | 1.09 | 1.09 | 99 | 1013.4 |
| 20260901234728 | 22 | 118 | 0.0 | 1.6 | 0.00 | 1.09 | 1.09 | 99 | 1013.3 |
| 20260901234228 | 22 | 118 | 0.0 | 0.0 | 0.00 | 1.09 | 1.09 | 99 | 1013.1 |
| 20260901233722 | 22 | 118 | 0.0 | 0.0 | 0.00 | 1.09 | 1.09 | 99 | 1013.3 |
| 20260901233218 | 22 | 118 | 0.0 | 0.0 | 0.00 | 1.09 | 1.09 | 99 | 1013.0 |